TimeEDT,TemperatureF,Dew PointF,Humidity,Sea Level PressureIn,VisibilityMPH,Wind Direction,Wind SpeedMPH,Gust SpeedMPH,PrecipitationIn,Events,Conditions,WindDirDegrees,DateUTC
12:53 AM,66.0,64.0,93,29.88,5.0,Calm,Calm,-,0.00,Rain,Rain,0,2013-06-03 04:53:00
1:53 AM,66.0,64.9,96,29.88,10.0,Calm,Calm,-,0.04,,Overcast,0,2013-06-03 05:53:00
2:02 AM,66.0,64.0,93,29.94,10.0,Calm,Calm,-,N/A,,Overcast,0,2013-06-03 06:02:00
2:10 AM,66.0,64.9,96,29.94,9.0,Calm,Calm,-,N/A,,Overcast,0,2013-06-03 06:10:00
2:19 AM,66.0,64.9,96,29.94,10.0,Calm,Calm,-,N/A,,Overcast,0,2013-06-03 06:19:00
2:53 AM,66.0,64.9,96,29.87,8.0,Calm,Calm,-,N/A,,Overcast,0,2013-06-03 06:53:00
3:01 AM,66.0,64.9,96,29.93,9.0,Calm,Calm,-,N/A,,Overcast,0,2013-06-03 07:01:00
3:50 AM,66.2,64.4,94,29.93,10.0,Calm,Calm,-,N/A,,Overcast,0,2013-06-03 07:50:00
3:53 AM,66.9,64.9,93,29.87,10.0,Calm,Calm,-,N/A,,Overcast,0,2013-06-03 07:53:00
4:03 AM,66.9,64.9,93,29.93,10.0,SSW,4.6,-,N/A,,Overcast,210,2013-06-03 08:03:00
4:19 AM,66.9,64.0,90,29.93,10.0,WSW,6.9,-,N/A,,Overcast,240,2013-06-03 08:19:00
4:53 AM,66.0,64.0,93,29.86,10.0,SW,3.5,-,N/A,,Overcast,230,2013-06-03 08:53:00
5:53 AM,66.0,64.0,93,29.87,10.0,SW,3.5,-,N/A,,Overcast,230,2013-06-03 09:53:00
6:27 AM,66.0,64.0,93,29.95,10.0,SSW,5.8,-,N/A,,Overcast,210,2013-06-03 10:27:00
6:41 AM,66.0,64.0,93,29.95,10.0,SW,5.8,-,N/A,,Overcast,220,2013-06-03 10:41:00
6:53 AM,66.0,64.0,93,29.89,10.0,SSW,6.9,-,N/A,,Overcast,210,2013-06-03 10:53:00
7:22 AM,66.0,64.0,93,29.96,10.0,Calm,Calm,-,N/A,,Mostly Cloudy,0,2013-06-03 11:22:00
7:53 AM,66.9,64.0,90,29.90,10.0,SW,4.6,-,N/A,,Mostly Cloudy,230,2013-06-03 11:53:00
8:53 AM,69.1,64.9,87,29.91,10.0,SW,6.9,-,0.00,,Mostly Cloudy,230,2013-06-03 12:53:00
9:53 AM,71.1,64.0,78,29.92,10.0,WSW,5.8,-,N/A,,Mostly Cloudy,250,2013-06-03 13:53:00
10:28 AM,73.0,63.0,71,29.98,10.0,Variable,6.9,-,N/A,,Mostly Cloudy,0,2013-06-03 14:28:00
10:53 AM,73.0,64.0,73,29.92,10.0,WNW,8.1,-,N/A,,Scattered Clouds,290,2013-06-03 14:53:00
11:53 AM,75.0,62.1,64,29.92,10.0,Variable,4.6,-,N/A,,Scattered Clouds,0,2013-06-03 15:53:00
12:53 PM,78.1,62.1,58,29.92,10.0,WNW,10.4,-,N/A,,Scattered Clouds,290,2013-06-03 16:53:00
1:53 PM,80.1,60.1,50,29.89,10.0,WSW,11.5,23.0,N/A,,Scattered Clouds,250,2013-06-03 17:53:00
2:38 PM,73.0,60.1,64,29.97,10.0,NW,11.5,-,0.00,,Mostly Cloudy,310,2013-06-03 18:38:00
2:53 PM,77.0,61.0,58,29.89,10.0,WNW,10.4,-,0.00,,Mostly Cloudy,300,2013-06-03 18:53:00
3:53 PM,79.0,57.9,48,29.86,10.0,WNW,5.8,-,N/A,,Scattered Clouds,300,2013-06-03 19:53:00
4:53 PM,80.1,57.0,45,29.86,10.0,Variable,4.6,-,N/A,,Mostly Cloudy,0,2013-06-03 20:53:00
5:53 PM,77.0,57.9,52,29.86,10.0,NW,8.1,-,N/A,,Scattered Clouds,310,2013-06-03 21:53:00
6:53 PM,77.0,57.0,50,29.86,10.0,NNW,5.8,-,N/A,,Scattered Clouds,330,2013-06-03 22:53:00
7:53 PM,73.0,57.9,59,29.88,10.0,Calm,Calm,-,N/A,,Scattered Clouds,0,2013-06-03 23:53:00
8:53 PM,70.0,57.9,65,29.91,10.0,Calm,Calm,-,N/A,,Mostly Cloudy,0,2013-06-04 00:53:00
9:53 PM,68.0,57.9,70,29.94,10.0,Calm,Calm,-,N/A,,Scattered Clouds,0,2013-06-04 01:53:00
10:53 PM,64.9,57.9,78,29.96,10.0,Calm,Calm,-,N/A,,Scattered Clouds,0,2013-06-04 02:53:00
11:53 PM,64.9,57.0,75,29.98,10.0,Calm,Calm,-,N/A,,Scattered Clouds,0,2013-06-04 03:53:00